Date String (YYYY-MM-DD hh:mm:ss) UTC,Instrument flags,Ambient pressure (hPa),Sample flow (lpm),Bypass flow (lpm),Sample temperature (°C),Ambient temperature (°C),ASC tube jacket temperature (°C),LED temperature (°C),Box temperature (°C),Sample RH (%),Span deviation,Mass concentration (μg/m³),Mass concentration (μg/m³),Mass concentration (μg/m³)
DateTimeUTC,F1_M11,P_M11,Q1_M11,Q2_M11,T1_M11,T2_M11,T3_M11,T4_M11,T5_M11,U1_M11,ZSPAN_M11,X0_M11,X2_M11,X1_M11
2022-10-06 16:00:00,,0835.4,4.99,0.00,29.0,27.8,00.0,37.6,30.9,19.2,0002.1,0014.40,0006.63,0006.06
2022-10-06 16:01:00,,0835.4,5.01,0.00,29.0,27.8,00.0,37.6,30.9,19.1,0002.2,0013.08,0006.60,0006.05
2022-10-06 16:02:00,,0835.3,4.99,0.00,29.0,27.9,00.0,37.6,30.9,19.5,0002.1,0012.59,0006.57,0006.03
2022-10-06 16:03:00,,0835.4,4.99,0.00,29.0,27.9,00.0,37.6,30.9,19.2,0001.7,0012.81,0006.57,0006.04
2022-10-06 16:04:00,,0835.4,5.01,0.00,29.0,27.9,00.0,37.6,30.9,18.6,0001.0,0012.58,0006.61,0006.07
2022-10-06 16:05:00,,0835.3,4.99,0.00,29.0,27.9,00.0,37.7,30.9,18.4,-000.1,0011.36,0006.60,0006.11
2022-10-06 16:06:00,,0835.4,5.00,0.00,29.1,27.9,00.0,37.7,30.9,18.5,-000.4,0011.21,0006.66,0006.17
2022-10-06 16:07:00,,0835.3,5.00,0.00,29.1,27.9,00.0,37.7,31.0,18.5,0000.2,0011.96,0006.72,0006.25
2022-10-06 16:08:00,,0835.3,4.99,0.00,29.1,27.9,00.0,37.7,31.0,19.0,0000.7,0012.63,0006.79,0006.32
2022-10-06 16:09:00,,0835.3,5.01,0.00,29.1,28.0,00.0,37.7,31.0,18.9,0000.6,0013.43,0006.88,0006.38
2022-10-06 16:10:00,,0835.3,5.00,0.00,29.1,28.0,00.0,37.7,31.0,18.8,0001.0,0013.50,0006.90,0006.43
2022-10-06 16:11:00,,0835.3,5.00,0.00,29.1,28.0,00.0,37.8,31.0,18.7,0001.1,0013.67,0006.91,0006.45
2022-10-06 16:12:00,,0835.2,4.98,0.00,29.1,28.0,00.0,37.8,31.0,19.1,0000.9,0013.74,0006.93,0006.46
2022-10-06 16:13:00,,0835.3,5.01,0.00,29.2,28.0,00.0,37.8,31.1,19.0,0000.7,0013.76,0006.93,0006.48
2022-10-06 16:14:00,,0835.3,4.99,0.00,29.2,28.1,00.0,37.8,31.1,18.7,0001.1,0013.06,0006.96,0006.52
2022-10-06 16:15:00,,0835.3,5.01,0.00,29.2,28.1,00.0,37.8,31.1,18.9,0001.2,0012.76,0006.96,0006.54
2022-10-06 16:16:00,,0835.3,5.01,0.00,29.2,28.1,00.0,37.8,31.1,18.7,0001.6,0012.93,0006.98,0006.51
2022-10-06 16:17:00,,0835.2,4.99,0.00,29.2,28.1,00.0,37.9,31.1,18.8,0001.7,0013.26,0006.99,0006.51
2022-10-06 16:18:00,,0835.2,5.01,0.00,29.2,28.1,00.0,37.9,31.1,18.6,0001.6,0012.72,0006.98,0006.50
2022-10-06 16:19:00,,0835.2,4.99,0.00,29.3,28.2,00.0,37.9,31.2,19.0,0001.8,0012.16,0007.00,0006.52
2022-10-06 16:20:00,,0835.3,5.00,0.00,29.3,28.2,00.0,37.9,31.2,18.9,0001.9,0011.79,0007.01,0006.52
2022-10-06 16:21:00,,0835.3,4.99,0.00,29.3,28.2,00.0,37.9,31.2,19.4,0001.3,0011.86,0007.06,0006.54
2022-10-06 16:22:00,,0835.2,5.01,0.00,29.3,28.2,00.0,37.9,31.2,20.0,0001.5,0011.80,0007.09,0006.54
2022-10-06 16:23:00,,0835.2,4.99,0.00,29.3,28.2,00.0,37.9,31.2,19.4,0001.7,0012.19,0007.13,0006.56
2022-10-06 16:24:00,,0835.2,5.01,0.00,29.3,28.2,00.0,38.0,31.2,19.5,0001.7,0012.72,0007.19,0006.59
2022-10-06 16:25:00,,0835.2,4.99,0.00,29.3,28.2,00.0,38.0,31.2,20.0,0001.8,0012.83,0007.21,0006.60
2022-10-06 16:26:00,,0835.2,5.00,0.00,29.4,28.2,00.0,38.0,31.2,20.0,0001.7,0012.88,0007.24,0006.60
2022-10-06 16:27:00,,0835.3,5.01,0.00,29.4,28.2,00.0,38.0,31.3,20.3,0001.5,0013.19,0007.25,0006.61
2022-10-06 16:28:00,,0835.2,4.98,0.00,29.4,28.2,00.0,38.0,31.3,19.8,0001.6,0012.97,0007.26,0006.62
2022-10-06 16:29:00,,0835.2,5.00,0.00,29.4,28.3,00.0,38.0,31.3,20.2,0001.3,0012.84,0007.27,0006.62
2022-10-06 16:30:00,,0835.2,5.00,0.00,29.4,28.3,00.0,38.0,31.3,20.2,0001.1,0012.93,0007.28,0006.60
2022-10-06 16:31:00,,0835.2,4.99,0.00,29.4,28.3,00.0,38.1,31.3,19.9,0000.9,0012.63,0007.23,0006.59
2022-10-06 16:32:00,,0835.3,5.01,0.00,29.5,28.3,00.0,38.1,31.4,19.9,0001.3,0012.48,0007.20,0006.60
2022-10-06 16:33:00,,0835.3,4.99,0.00,29.5,28.3,00.0,38.1,31.4,19.7,0000.8,0012.51,0007.21,0006.64
2022-10-06 16:34:00,,0835.2,5.00,0.00,29.5,28.4,00.0,38.1,31.4,19.8,0000.4,0012.24,0007.22,0006.67
2022-10-06 16:35:00,,0835.2,5.01,0.00,29.5,28.4,00.0,38.1,31.4,19.9,0000.8,0012.05,0007.22,0006.68
2022-10-06 16:36:00,,0835.2,4.99,0.00,29.5,28.4,00.0,38.1,31.4,19.7,0000.7,0011.96,0007.22,0006.70
2022-10-06 16:37:00,,0835.2,5.01,0.00,29.5,28.4,00.0,38.2,31.4,19.9,0000.9,0011.73,0007.20,0006.72
2022-10-06 16:38:00,,0835.2,5.00,0.00,29.6,28.4,00.0,38.2,31.4,20.0,0001.4,0011.22,0007.14,0006.72
2022-10-06 16:39:00,,0835.2,5.01,0.00,29.6,28.4,00.0,38.2,31.4,19.7,0001.3,0011.18,0007.14,0006.71
2022-10-06 16:40:00,,0835.2,4.99,0.00,29.6,28.5,00.0,38.2,31.4,19.6,0001.5,0011.33,0007.20,0006.74
2022-10-06 16:41:00,,0835.2,5.02,0.00,29.6,28.5,00.0,38.2,31.4,19.5,0001.7,0011.44,0007.25,0006.79
2022-10-06 16:42:00,,0835.2,4.99,0.00,29.6,28.5,00.0,38.2,31.5,19.4,0001.5,0011.54,0007.31,0006.84
2022-10-06 16:43:00,,0835.2,5.01,0.00,29.6,28.5,00.0,38.3,31.5,19.6,0001.4,0011.77,0007.37,0006.87
2022-10-06 16:44:00,,0835.2,4.99,0.00,29.6,28.5,00.0,38.3,31.5,19.7,0002.2,0011.80,0007.39,0006.88
2022-10-06 16:45:00,,0835.2,5.01,0.00,29.7,28.5,00.0,38.3,31.5,19.6,0002.9,0011.75,0007.41,0006.89
2022-10-06 16:46:00,,0835.2,4.99,0.00,29.7,28.5,00.0,38.3,31.5,19.3,0002.6,0012.12,0007.44,0006.91
2022-10-06 16:47:00,,0835.2,5.01,0.00,29.7,28.5,00.0,38.3,31.5,19.6,0002.3,0012.62,0007.48,0006.93
2022-10-06 16:48:00,,0835.2,4.99,0.00,29.7,28.6,00.0,38.3,31.5,19.4,0002.5,0013.22,0007.52,0006.97
2022-10-06 16:49:00,,0835.2,5.01,0.00,29.7,28.6,00.0,38.3,31.6,19.0,0002.6,0014.00,0007.60,0007.01
2022-10-06 16:50:00,,0835.1,4.98,0.00,29.7,28.6,00.0,38.3,31.6,19.1,0002.9,0014.44,0007.64,0007.04
2022-10-06 16:51:00,,0835.2,5.01,0.00,29.7,28.6,00.0,38.4,31.6,19.1,0002.9,0014.24,0007.61,0007.06
2022-10-06 16:52:00,,0835.2,4.99,0.00,29.8,28.6,00.0,38.4,31.6,19.0,0002.9,0014.14,0007.59,0007.07
2022-10-06 16:53:00,,0835.2,5.01,0.00,29.8,28.6,00.0,38.4,31.6,19.5,0003.3,0014.27,0007.61,0007.09
2022-10-06 16:54:00,,0835.2,4.99,0.00,29.8,28.6,00.0,38.4,31.7,19.6,0003.5,0014.82,0007.64,0007.12
2022-10-06 16:55:00,,0835.2,5.01,0.00,29.8,28.6,00.0,38.4,31.7,19.9,0003.1,0014.79,0007.63,0007.14
2022-10-06 16:56:00,,0835.2,4.99,0.00,29.8,28.7,00.0,38.4,31.7,20.0,0002.7,0014.69,0007.61,0007.14
2022-10-06 16:57:00,,0835.2,5.01,0.00,29.8,28.7,00.0,38.5,31.7,20.2,0002.4,0014.06,0007.59,0007.14
2022-10-06 16:58:00,,0835.2,4.99,0.00,29.8,28.7,00.0,38.5,31.7,20.1,0002.5,0013.79,0007.57,0007.13
2022-10-06 16:59:00,,0835.2,5.01,0.00,29.8,28.7,00.0,38.5,31.7,19.9,0002.2,0013.46,0007.61,0007.13
